Gainesville, FL

11:47 PM EST on December 14, 2017 (GMT -0500)
Gainesville Regional

Weather History for KGNV - September, 2012

Change the Weather History Date:

Thursday, September 20, 2012

  Actual Average Record
Temperature  
Mean Temperature 78 °F 78 °F  
Max Temperature 87 °F 87 °F 96 °F (1925)
Min Temperature 69 °F 68 °F 60 °F (1910)
Degree Days  
Heating Degree Days 0 0  
Month to date heating degree days 0 0  
Since 1 July heating degree days 0 0  
Cooling Degree Days 13 13  
Month to date cooling degree days 305 282  
Year to date cooling degree days 2563 2226  
Growing Degree Days 28 (Base 50)    
Moisture  
Dew Point 71 °F    
Average Humidity 78    
Maximum Humidity 100    
Minimum Humidity 55    
Precipitation  
Precipitation 1.63 in 0.15 in 3.14 in (1902)
Month to date precipitation 6.26 3.12  
Year to date precipitation 48.37 38.69  
Snow  
Snow 0.00 in 0.00 in 0.00 in ()
Month to date snowfall 0.0 0.0  
Since 1 July snowfall 0.0 0.0  
Since 1 September snowfall 0.0 0.0  
Snow Depth 0.00 in    
Sea Level Pressure  
Sea Level Pressure 30.02 in    
Wind  
Wind Speed 3 mph (ENE)    
Max Wind Speed 32 mph    
Max Gust Speed 40 mph    
Visibility 7 miles    
Events Fog , Rain , Thunderstorm    
T = Trace of Precipitation, MM = Missing Value Source: NWS Daily Summary

Daily Weather History Graph

Daily Weather History Graph

Search for Another Location

Airport or City:

Trip Planner

Search our weather history database for the weather conditions in past years. The results will help you decide how hot, cold, wet, or windy it might be!

Date:

Astronomy

Sep. 20, 2012 Rise Set
Actual Time 7:16 AM EDT 7:27 PM EDT
Civil Twilight 6:52 AM EDT 7:51 PM EDT
Nautical Twilight 6:25 AM EDT 8:19 PM EDT
Astronomical Twilight 5:56 AM EDT 8:47 PM EDT
Moon 12:07 PM EDT (9/20) 10:54 PM EDT (9/20)
Length of Visible Light 12h 58m
Length of Day
12h 10m
Waxing Crescent, 26% of the Moon is Illuminated
Sep 20
Waxing Crescent
Sep 22
First Quarter
Sep 29
Full
Oct 8
Last Quarter
Oct 15
New

Hourly Weather History & Observations

Time (EDT) Temp. Heat Index Dew Point Humidity Pressure Visibility Wind Dir Wind Speed Gust Speed Precip Events Conditions
12:53 AM 75.0 °F - 73.0 °F 94% 30.03 in 10.0 mi Calm Calm - N/A   Clear
1:53 AM 75.0 °F - 73.0 °F 94% 30.01 in 8.0 mi Calm Calm - N/A   Clear
2:53 AM 75.0 °F - 72.0 °F 90% 30.01 in 8.0 mi Calm Calm - N/A   Mostly Cloudy
3:53 AM 73.9 °F - 73.0 °F 97% 30.00 in 7.0 mi Calm Calm - N/A   Scattered Clouds
4:53 AM 73.9 °F - 73.0 °F 97% 29.99 in 6.0 mi Calm Calm - N/A   Clear
5:53 AM 73.9 °F - 72.0 °F 93% 30.01 in 6.0 mi Calm Calm - N/A   Partly Cloudy
6:53 AM 73.9 °F - 72.0 °F 93% 30.01 in 5.0 mi Calm Calm - N/A   Clear
7:03 AM 73.4 °F - 71.6 °F 94% 30.02 in 5.0 mi Calm Calm - N/A   Partly Cloudy
7:53 AM 73.9 °F - 73.0 °F 97% 30.03 in 4.0 mi ENE 3.5 mph - N/A   Scattered Clouds
8:26 AM 75.2 °F - 73.4 °F 94% 30.04 in 4.0 mi ENE 3.5 mph - N/A   Overcast
8:53 AM 75.0 °F - 73.9 °F 96% 30.04 in 6.0 mi NE 4.6 mph - N/A   Mostly Cloudy
9:53 AM 77.0 °F - 73.9 °F 90% 30.06 in 9.0 mi East 3.5 mph - 0.00 in   Mostly Cloudy
10:53 AM 79.0 °F - 73.0 °F 82% 30.06 in 10.0 mi ESE 4.6 mph - N/A   Clear
11:53 AM 81.0 °F 85.2 °F 72.0 °F 74% 30.06 in 10.0 mi ENE 3.5 mph - N/A   Mostly Cloudy
12:07 PM 82.4 °F 87.2 °F 71.6 °F 70% 30.05 in 10.0 mi Variable 3.5 mph - 0.00 in Rain Light Rain
12:30 PM 82.4 °F 87.2 °F 71.6 °F 70% 30.05 in 10.0 mi East 3.5 mph - 0.00 in   Mostly Cloudy
12:43 PM 82.4 °F 87.2 °F 71.6 °F 70% 30.05 in 10.0 mi ESE 4.6 mph - 0.00 in   Overcast
12:53 PM 81.0 °F 84.9 °F 71.1 °F 72% 30.04 in 10.0 mi ESE 3.5 mph - 0.00 in   Overcast
1:53 PM 82.9 °F 86.5 °F 69.1 °F 63% 30.01 in 10.0 mi Calm Calm - N/A   Scattered Clouds
2:53 PM 84.0 °F 87.0 °F 68.0 °F 58% 29.99 in 10.0 mi Variable 4.6 mph - N/A   Clear
3:53 PM 86.0 °F 89.4 °F 68.0 °F 55% 29.98 in 10.0 mi Calm Calm - N/A   Clear
4:53 PM 86.0 °F 89.4 °F 68.0 °F 55% 29.97 in 10.0 mi Calm Calm - N/A   Clear
5:53 PM 82.0 °F 86.3 °F 71.1 °F 69% 29.97 in 10.0 mi NE 17.3 mph 20.7 mph N/A   Mostly Cloudy
6:43 PM 75.2 °F - 71.6 °F 89% 29.98 in 3.0 mi ENE 15.0 mph - 0.02 in Rain , Thunderstorm Thunderstorms and Rain
6:53 PM 75.0 °F - 71.1 °F 87% 29.98 in 6.0 mi NNE 9.2 mph - 0.03 in Rain , Thunderstorm Light Thunderstorms and Rain
7:07 PM 73.4 °F - 69.8 °F 88% 30.02 in 2.0 mi North 17.3 mph 32.2 mph 0.04 in Rain , Thunderstorm Heavy Thunderstorms and Rain
7:09 PM 71.6 °F - 69.8 °F 94% 30.02 in 1.2 mi NNW 17.3 mph 32.2 mph 0.10 in Rain , Thunderstorm Heavy Thunderstorms and Rain
7:13 PM 71.6 °F - 69.8 °F 94% 30.03 in 0.5 mi NNW 32.2 mph 40.3 mph 0.36 in Fog , Rain , Thunderstorm Heavy Thunderstorms and Rain
7:18 PM 69.8 °F - 66.2 °F 88% 30.03 in 0.2 mi North 15.0 mph 40.3 mph 0.72 in Fog , Rain , Thunderstorm Heavy Thunderstorms and Rain
7:23 PM 69.8 °F - 66.2 °F 88% 30.03 in 0.5 mi NE 16.1 mph 38.0 mph 1.06 in Fog , Rain , Thunderstorm Heavy Thunderstorms and Rain
7:26 PM 71.6 °F - 68.0 °F 88% 30.03 in 0.5 mi ENE 11.5 mph 24.2 mph 1.16 in Fog , Rain , Thunderstorm Heavy Thunderstorms and Rain
7:34 PM 71.6 °F - 69.8 °F 94% 30.03 in 1.8 mi ENE 10.4 mph - 1.28 in Rain , Thunderstorm Heavy Thunderstorms and Rain
7:50 PM 71.6 °F - 69.8 °F 94% 30.04 in 3.0 mi ENE 6.9 mph - 1.57 in Rain , Thunderstorm Thunderstorms and Rain
7:53 PM 72.0 °F - 70.0 °F 93% 30.03 in 4.0 mi ENE 10.4 mph - 1.59 in Rain , Thunderstorm Light Thunderstorms and Rain
8:06 PM 71.6 °F - 69.8 °F 94% 30.03 in 9.0 mi SE 6.9 mph - 0.01 in Rain Light Rain
8:26 PM 71.6 °F - 69.8 °F 94% 30.04 in 10.0 mi NE 5.8 mph - 0.01 in   Mostly Cloudy
8:53 PM 72.0 °F - 69.1 °F 91% 30.04 in 10.0 mi East 4.6 mph - 0.01 in   Clear
9:53 PM 72.0 °F - 70.0 °F 93% 30.04 in 10.0 mi SE 3.5 mph - N/A   Clear
10:22 PM 71.6 °F - 69.8 °F 94% 30.05 in 8.0 mi SSE 3.5 mph - N/A   Scattered Clouds
10:31 PM 71.6 °F - 71.6 °F 100% 30.05 in 7.0 mi Calm Calm - N/A   Mostly Cloudy
10:53 PM 73.0 °F - 71.1 °F 93% 30.04 in 8.0 mi Calm Calm - N/A   Overcast
11:40 PM 71.6 °F - 71.6 °F 100% 30.03 in 8.0 mi Calm Calm - N/A   Scattered Clouds
11:53 PM 72.0 °F - 70.0 °F 93% 30.03 in 8.0 mi Calm Calm - N/A   Scattered Clouds